Retour au catalogue

ATLAS 5 CENTAUR DEB

LostHEO
NORAD 45472·DEBRIS·🇺🇸 United States

Lancé Oct 17, 2018 depuis Cape Canaveral Space Force Station

Loading…

Prochains Passages (prochaines 24 heures)

TLE

PériméSource: Space-Track

Époque: May 29, 2026, 09:22 UTC

1 45472U 18079BU  26149.39066091 -.00000092  00000-0  00000-0 0  9995
2 45472  13.4083  31.2348 4781983 323.2808  12.0197  1.81833165 32281

Suivez ATLAS 5 CENTAUR DEB en temps réel avec AllMySat

Download on the App Store